Back to catalog

CZ-6A DEB

AlivePO
NORAD 60805·DEBRIS·🇨🇳 China

Launched Aug 6, 2024 from Taiyuan Satellite Launch Center

Loading…

Next Passes (next 24 hours)

TLE

FreshSource: Space-Track

Epoch: Sep 14, 2026, 13:16 UTC

1 60805U 24140GG  26257.55314435  .00000540  00000-0  29757-3 0  9994
2 60805  89.2962 292.7373 0102571 292.5152  66.5198 14.07750409107394

Track CZ-6A DEB in real time with AllMySat

Download on the App Store